• Processing (Info)

  • MPEC 2022-Q183 : 2022 QN7

    The following Minor Planet Electronic Circular may be linked-to from your own Web pages, but must not otherwise be redistributed electronically.

    A form allowing access to any MPEC is at the bottom of this page.


    Read MPEC 2022-Q182 Read MPEC 2022-Q184


    M.P.E.C. 2022-Q183                              Issued 2022 August 30, 11:35 UT
    
         The Minor Planet Electronic Circulars contain information on unusual
             minor planets and routine data on comets.  They are published
        on behalf of Division F of the International Astronomical Union by the
              Minor Planet Center, Smithsonian Astrophysical Observatory,
                              Cambridge, MA 02138, U.S.A.
    
                 Prepared using the Tamkin Foundation Computer Network
    
                                  MPC@CFA.HARVARD.EDU
                URL https://www.minorplanetcenter.net/    ISSN 1523-6714
    
                                    2022 QN7                                 
    
    
    Observations:
         K22Q07N* C2022 08 28.47399300 15 11.100-25 26 12.98         20.06wUEQ183F51
         K22Q07N  C2022 08 28.49471400 15 13.463-25 23 59.32         20.18wUEQ183F51
         K22Q07N  C2022 08 28.50489600 15 14.616-25 22 53.48         20.25wUEQ183F51
         K22Q07N  C2022 08 28.59266800 15 24.660-25 13 20.42         19.99GVEQ183F51
         K22Q07N  C2022 08 28.59336000 15 24.741-25 13 16.00         19.78GVEQ183F51
         K22Q07N HC2022 08 28.87920 00 16 12.98 -24 41 20.8                VEQ183M21
         K22Q07N KC2022 08 28.90335 00 16 15.89 -24 38 48.2          20.0 GVEQ183M21
         K22Q07N KC2022 08 29.00337700 16 31.448-24 27 50.46         19.9 GXEQ183Y00
         K22Q07N KC2022 08 29.01633000 16 33.158-24 26 29.01         19.7 GXEQ183Y00
         K22Q07N KC2022 08 29.02908900 16 34.765-24 25 08.35         19.5 GXEQ183Y00
         K22Q07N |C2022 08 29.33864 00 17 11.79 -23 51 37.5          19.7 VuEQ183807
         K22Q07N |C2022 08 29.34048 00 17 11.96 -23 51 25.4          19.8 VuEQ183807
         K22Q07N |C2022 08 29.34225 00 17 12.16 -23 51 13.9          19.8 VuEQ183807
         K22Q07N  C2022 08 29.35239400 17 17.100-23 51 22.71         19.8 GVEQ183654
         K22Q07N  C2022 08 29.35640400 17 17.460-23 50 56.53         19.8 GVEQ183654
         K22Q07N ^C2022 08 29.49962300 17 36.309-23 35 14.56         19.78GVEQ183568
         K22Q07N ^C2022 08 29.50060400 17 36.412-23 35 08.21         19.96GVEQ183568
         K22Q07N ^C2022 08 29.50159000 17 36.514-23 35 01.83         20.23GVEQ183568
         K22Q07N mC2022 08 30.39525900 19 35.929-21 58 21.76         19.48GVEQ183V06
         K22Q07N mC2022 08 30.39570600 19 35.980-21 58 18.84         19.62GVEQ183V06
         K22Q07N mC2022 08 30.39615300 19 36.030-21 58 15.46         19.74GVEQ183V06
    
    Observer details:
    568 Mauna Kea.  Observers R. Wainscoat, L. Wells, E. Bertin.  Measurers R.
        Weryk, R. Wainscoat.  3.6-m Canada-France-Hawaii Telescope + CCD.
    654 Table Mountain Observatory, Wrightwood-PHMC.  Observers N. Evans, P. Choi,
        N. Saini, C. Zhai, R. Trahan, M. Shao.  1.0-m Reflector + CCD.
    807 Cerro Tololo Observatory, La Serena.  Observers T. Linder, R. Holmes, L.
        Horn.  0.61-m f/6.5 Dall-Kirkham Astrograph + CCD.
    F51 Pan-STARRS 1, Haleakala.  Observers J. Bulger, T. Lowe, A. Schultz, I.
        Smith, K. Chambers.  Measurers K. Chambers, S. Chastel, T. de Boer, J.
        Fairlamb, H. Gao, M. Huber, C.-C. Lin, E. Magnier, Y. Ramanjooloo, R.
        Wainscoat, R. Weryk.  1.8-m Ritchey-Chretien + CCD.
    M21 Schiaparelli Southern Observatory, Hakos.  Observers A. Aletti, F.
        Bellini, L. Buzzi, G. Galli.  Measurer L. Buzzi.  0.36-m f/8.4 reflector +
        CCD.
    V06 Catalina Sky Survey-Kuiper.  Observer H. Groeller.  Measurers E. J.
        Christensen, D. Fay, J. B. Fazekas, D. C. Fuls, A. R. Gibbs, A. D. Grauer,
        H. Groeller, J. K. Hogan, R. A. Kowalski, S. M. Larson, G. J. Leonard, D.
        Rankin, R. L. Seaman, A. Serrano, F. C. Shelly, K. W. Wierzchos.  1.55-m
        reflector + 1K CCD.
    Y00 SONEAR Observatory, Oliveira.  Observer C. Jacques.  0.45-m f/2.9
        reflector + CCD.
    
    Orbital elements:
    2022 QN7                                                 Earth MOID = 0.1108 AU
    Epoch 2022 Aug. 9.0 TT = JDT 2459800.5                  Veres                   
    M 355.67318              (2000.0)            P               Q                  
    n   0.29690401     Peri.  335.96548     +0.87719263     +0.48001631             
    a   2.2253176      Node   355.30507     -0.41628309     +0.74909148             
    e   0.5015135      Incl.    7.60782     -0.23925190     +0.45655920             
    P   3.32           H   23.34          G   0.15           U   8                  
    Residuals in seconds of arc
    220828 F51  0.0   0.1-    220829 Y00  0.2-  0.3+    220829 654  0.7-  0.2+
    220828 F51  0.0   0.0     220829 Y00  0.2+  0.1-    220829 568  0.0   0.0
    220828 F51  0.1-  0.0     220829 Y00  0.1-  0.2-    220829 568  0.0   0.0
    220828 F51  0.0   0.2+    220829 807  0.5+  0.1+    220829 568  0.0   0.0
    220828 F51  0.0   0.0     220829 807  0.0   0.1+    220830 V06  0.2-  0.1-
    220828 M21  0.3+  0.4+    220829 807  0.1+  0.0     220830 V06  0.1-  0.1-
    220828 M21  0.3-  0.3-    220829 654  0.5+  0.1-    220830 V06  0.0   0.3+
    
    Ephemeris:
    2022 QN7                 a,e,i = 2.23, 0.50, 8                   q = 1.1093
    Date    TT    R. A. (2000) Decl.     Delta      r    Elong.  Phase     V
    2022 07 31    22 03 45.6 -58 19 04   0.1653  1.1420   137.2    37.2    21.2
    ...
    2022 08 15    23 27 15.8 -46 40 44   0.1274  1.1137   140.2    35.6    20.6
    ...
    2022 08 23    23 59 24.8 -34 58 21   0.1166  1.1093   145.4    31.2    20.2
    ...
    2022 08 29    00 16 25.9 -24 28 33   0.1146  1.1111   150.3    26.7    20.1
    2022 08 30    00 18 44.0 -22 40 14   0.1148  1.1118   151.2    26.0    20.1
    2022 08 31    00 20 53.7 -20 51 57   0.1152  1.1126   152.0    25.2    20.0
    ...
    2022 09 06    00 31 13.4 -10 21 56   0.1209  1.1201   156.6    21.0    20.0
    ...
    2022 09 14    00 39 17.3 +01 33 28   0.1369  1.1364   161.1    16.7    20.2
    ...
    2022 09 29    00 43 32.0 +15 32 02   0.1880  1.1848   165.5    12.2    20.8
    
    M. P. C. Staff               (C) Copyright 2022 MPC           M.P.E.C. 2022-Q183
    


    Read MPEC 2022-Q182 Read MPEC 2022-Q184


    MPEC number:

    Enter an MPEC number in one of the following forms:

    • 1997-B01 (the full form)
    • J97B01 (the packed version of the full form)
    • B01 (the abbreviated form)